Starlink 32696

operational
NORAD ID: 62310 Int'l Des: 2024-239 Owner: SPXS Country: US Constellation: starlink
LEOCIRCULAR

Starlink 32696について

説明を読み込み中...

リアルタイム位置

3D地球を読み込み中...

次回通過

高度履歴

Altitude vs Time

uPlot chart will show altitude changes over time

軌道要素

1 62310U 24239K 26095.22687364 .00028483 00000-0 97070-3 0 9993
2 62310 53.1577 70.8886 0001490 108.4986 251.6177 15.30180746 73441
Epoch: Apr 5, 2026 • Age: 16 hours

現在のステータス

高度 485.2 km
速度 7.62 km/s
衛星直下点 -29.98°S, 106.04°W
打ち上げ日 Dec 13, 2024
運用期間 1.3 years
タイプ internet

技術仕様

分類 Payload
質量 730.00 kg
乾燥質量 700.00 kg
総質量 730.00 kg
長さ 0.30 m
直径 4.10 m
スパン 29.00 m
形状 Box + pan
製造者 SPXS
バスタイプ Starlink V2M
フェーズステータス In Orbit
所有者/国 SPXS/US

大規模コンステレーション

Loading constellations...